This is the latest recevied weather packets stored in our database for station/object KF5WCW-1. If no packets are shown the sender has not sent any weather packets the latest 1 day(s).
| Time | Temp. | Humidity | Pressure | Rain* | Wind** | Luminosity | Snow |
|---|---|---|---|---|---|---|---|
| 1777996569 | 11.11° C | 58% | 0 hPa | 0 mm | 1.79 m/s, 95° | - | - |
| 1777996269 | 10.56° C | 58% | 0 hPa | 0 mm | 2.68 m/s, 142° | - | - |
| 1777995969 | 10.56° C | 59% | 0 hPa | 0 mm | 1.79 m/s, 215° | - | - |
| 1777995669 | 10.56° C | 60% | 0 hPa | 0 mm | 1.79 m/s, 80° | - | - |
| 1777995369 | 10° C | 61% | 0 hPa | 0 mm | 0 m/s | - | - |
| 1777995069 | 10° C | 63% | 0 hPa | 0 mm | 1.79 m/s, 130° | - | - |
| 1777994773 | 9.44° C | 63% | 0 hPa | 0 mm | 2.68 m/s, 130° | - | - |
| 1777994469 | 9.44° C | 66% | 0 hPa | 0 mm | 0 m/s | - | - |
| 1777994169 | 8.89° C | 66% | 0 hPa | 0 mm | 2.24 m/s, 192° | - | - |
| 1777993869 | 8.89° C | 68% | 0 hPa | 0 mm | 1.79 m/s, 133° | - | - |
| 1777993569 | 8.89° C | 68% | 0 hPa | 0 mm | 2.24 m/s, 182° | - | - |
| 1777993269 | 8.89° C | 68% | 0 hPa | 0 mm | 0 m/s | - | - |
| 1777992969 | 8.89° C | 68% | 0 hPa | 0 mm | 0.89 m/s, 153° | - | - |
| 1777992669 | 8.89° C | 68% | 0 hPa | 0 mm | 0 m/s | - | - |
| 1777992369 | 8.33° C | 70% | 0 hPa | 0 mm | 0.45 m/s, 85° | - | - |
| 1777992069 | 8.33° C | 70% | 0 hPa | 0 mm | 1.34 m/s, 125° | - | - |
| 1777991769 | 8.33° C | 71% | 0 hPa | 0 mm | 0 m/s | - | - |
| 1777991469 | 8.33° C | 71% | 0 hPa | 0 mm | 1.79 m/s, 143° | - | - |
| 1777991169 | 8.33° C | 71% | 0 hPa | 0 mm | 0 m/s | - | - |
| 1777990869 | 7.78° C | 73% | 0 hPa | 0 mm | 0 m/s | - | - |
| 1777990569 | 7.22° C | 73% | 0 hPa | 0 mm | 1.79 m/s, 158° | - | - |
| 1777990269 | 6.67° C | 75% | 0 hPa | 0 mm | 1.34 m/s, 82° | - | - |
| 1777989970 | 6.11° C | 79% | 0 hPa | 0 mm | 0 m/s | - | - |
| 1777989669 | 5.56° C | 80% | 0 hPa | 0 mm | 0 m/s | - | - |
| 1777989370 | 5° C | 82% | 0 hPa | 0 mm | 0 m/s | - | - |
* Rain latest hour (hover to see other rain measurements)
** Current wind speed in m/s (hover to see current wind gust speed)